[[{"header":{"parameterUnit":"m.s-1","parameterCategory":1,"la1":30.2991,"la2":30.254,"lo1":-89.0895,"lo2":-89.0444,"dy":0.0017,"dx":0.0017,"nx":28,"ny":28,"refTime":"2023-03-17T21:00:00:Z","depth":0,"parameterNumber":2,"parameterNumberName":"U-component_of_WINDS"},"data":[0,0,0,0,0,0,0,0,0,0,0,0,0,0,0,0,0,0,0,0,0,0,0,0,0,0,0,0,0,0,0,0,0,0,0,0,0,0,0,0,0,0,0,0,0,0,0,0,0,0,0,0,0,0,0,0,0,0,-0.3656,-0.3657,0,-0.372,-0.372,-0.3721,-0.3746,-0.3746,-0.3746,-0.3745,-0.3813,-0.3814,-0.3816,0,0,0,0,0,0,0,0,0,0,0,0,0,-0.356,-0.3561,-0.3656,-0.3657,-0.3658,-0.372,-0.372,-0.3721,-0.3746,-0.3746,-0.3746,-0.3745,-0.3812,-0.3814,-0.3817,0,0,0,0,0,0,0,0,0,0,0,0,0,-0.361,-0.3562,-0.3656,-0.3678,-0.368,-0.3719,-0.3721,-0.3722,-0.3746,-0.3746,-0.3745,-0.3745,-0.3811,-0.3814,-0.3817,-0.384,0,0,-0.3826,-0.3827,0,0,0,0,0,0,0,0,-0.3607,-0.3614,-0.3674,-0.3676,-0.3679,-0.3725,-0.3711,-0.3761,-0.3746,-0.3721,-0.3745,-0.3745,-0.3784,-0.3789,-0.3801,-0.3843,-0.3846,-0.3826,-0.3828,-0.3829,-0.383,0,0,0,0,0,0,0,-0.3604,-0.3611,-0.3682,-0.3675,-0.3678,-0.3685,-0.3692,-0.3721,-0.3753,-0.3723,-0.3725,-0.3732,-0.3785,-0.3798,-0.3803,-0.3847,-0.3826,-0.3829,-0.383,-0.3832,-0.3912,-0.3913,0,0,0,0,0,0,-0.3596,-0.3608,-0.368,-0.3683,-0.3642,-0.3687,-0.3695,-0.371,-0.3753,-0.3759,-0.3732,-0.3733,-0.3794,-0.38,-0.3806,-0.3836,-0.3829,-0.3832,-0.3833,-0.3912,-0.3912,-0.3913,0,0,0,0,0,0,-0.3594,-0.3602,-0.3677,-0.3646,-0.3656,-0.3689,-0.3706,-0.3712,-0.3725,-0.376,-0.3766,-0.374,-0.3794,-0.3801,-0.3831,-0.3839,-0.3833,-0.3836,-0.3912,-0.3912,-0.3913,-0.3897,0,0,0,0,0,0,-0.3591,-0.3602,-0.361,-0.3646,-0.3658,-0.3701,-0.3707,-0.3713,-0.373,-0.3731,-0.3768,-0.3774,-0.3794,-0.3827,-0.3834,-0.3843,-0.3838,-0.3911,-0.3912,-0.3913,-0.3897,-0.3897,-0.3896,0,0,0,0,0,-0.3588,-0.3603,-0.361,-0.3619,-0.3669,-0.3701,-0.3708,-0.373,-0.373,-0.3739,-0.3762,-0.3773,-0.3837,-0.383,-0.3838,-0.3847,-0.3911,-0.3912,-0.3912,-0.3897,-0.3897,-0.3896,0,0,0,0,0,0,-0.3568,-0.3609,-0.3617,-0.3644,-0.3669,-0.3705,-0.3718,-0.3729,-0.3754,-0.3755,-0.3781,-0.379,-0.3817,-0.3836,-0.3827,-0.3873,-0.3875,-0.3877,-0.386,-0.386,-0.386,-0.3855,-0.384,0,0,0,0,0,-0.3567,-0.3588,-0.3623,-0.3644,-0.3656,-0.3685,-0.37,-0.3714,-0.3741,-0.3752,-0.3776,-0.3803,-0.3829,-0.3846,-0.3871,-0.39,-0.3908,-0.391,-0.391,-0.391,-0.3912,-0.3929,-0.393,-0.3916,-0.3916,-0.3916,0,0,-0.3564,-0.3589,-0.3602,-0.3641,-0.3662,-0.3685,-0.3693,-0.3717,-0.3735,-0.3756,-0.3785,-0.3804,-0.3836,-0.3865,-0.3879,-0.3881,-0.3918,-0.3911,-0.3911,-0.3913,-0.393,-0.3931,-0.3932,-0.3916,-0.3916,-0.3916,0,0,-0.3572,-0.3593,-0.3613,-0.3633,-0.3665,-0.3684,-0.3688,-0.3723,-0.3736,-0.3766,-0.3783,-0.3805,-0.3849,-0.387,-0.3887,-0.3904,-0.3915,-0.3911,-0.3911,-0.3927,-0.3928,-0.3929,-0.3935,-0.3937,-0.3913,-0.3913,-0.3913,0,-0.3566,-0.36,-0.3622,-0.3645,-0.3662,-0.3681,-0.3702,-0.3722,-0.376,-0.3772,-0.3773,-0.3829,-0.3852,-0.3886,-0.389,-0.3903,-0.391,-0.3907,-0.3926,-0.3927,-0.3929,-0.3935,-0.3937,-0.3913,-0.3913,-0.3913,-0.3913,0,-0.359,-0.3614,-0.3626,-0.3662,-0.3681,-0.3702,-0.3729,-0.3745,-0.3758,-0.3777,-0.3808,-0.3836,-0.3868,-0.3877,-0.3891,-0.3914,-0.3914,-0.3921,-0.3923,-0.3929,-0.3935,-0.3938,-0.3912,-0.3912,-0.3912,-0.3912,0,0,-0.3587,-0.3634,-0.3639,-0.3655,-0.3691,-0.371,-0.3734,-0.3764,-0.3778,-0.3804,-0.3824,-0.3861,-0.3867,-0.3887,-0.3903,-0.3917,-0.3928,-0.3922,-0.3923,-0.3922,-0.3956,-0.3951,-0.3953,-0.3936,-0.3937,-0.3937,-0.3954,0,-0.3599,-0.364,-0.3661,-0.3693,-0.3716,-0.3735,-0.3755,-0.378,-0.3799,-0.3821,-0.3842,-0.3868,-0.3874,-0.3886,-0.3901,-0.3924,-0.3936,-0.3923,-0.3956,-0.3957,-0.3947,-0.3957,-0.3951,-0.3965,-0.3956,-0.3957,-0.3957,0,-0.3619,-0.3644,-0.3678,-0.3712,-0.3722,-0.3739,-0.3769,-0.379,-0.3819,-0.3832,-0.3854,-0.3869,-0.3896,-0.3896,-0.3933,-0.3924,-0.3939,-0.3952,-0.3954,-0.3957,-0.3957,-0.3961,-0.3971,-0.3973,-0.3961,-0.3961,-0.396,0,-0.3613,-0.3655,-0.3681,-0.3695,-0.3735,-0.3747,-0.3764,-0.3793,-0.381,-0.3837,-0.3848,-0.3878,-0.3894,-0.3917,-0.3941,-0.3939,-0.3975,-0.3978,-0.3987,-0.3986,-0.3993,-0.3992,-0.4005,-0.4003,-0.4003,-0.4003,-0.4003,0,-0.3624,-0.3644,-0.3679,-0.3695,-0.3718,-0.3743,-0.3766,-0.3785,-0.381,-0.3831,-0.385,-0.387,-0.39,-0.3923,-0.3942,-0.397,-0.3977,-0.3989,-0.3993,-0.3987,-0.3985,-0.3997,-0.3996,-0.4004,-0.4004,-0.4004,-0.4003,0,-0.3621,-0.3645,-0.3674,-0.371,-0.3719,-0.3735,-0.3766,-0.3783,-0.3802,-0.3828,-0.3836,-0.3867,-0.3896,-0.3922,-0.396,-0.3973,-0.4001,-0.4007,-0.3991,-0.3994,-0.4001,-0.4,-0.4022,-0.4026,-0.4021,-0.4021,-0.4021,0,-0.3627,-0.3642,-0.3679,-0.3694,-0.3711,-0.3735,-0.3752,-0.3777,-0.3795,-0.3829,-0.3842,-0.3872,-0.3897,-0.3942,-0.3969,-0.3998,-0.4005,-0.4011,-0.401,-0.4003,-0.4005,-0.4004,-0.4006,-0.401,-0.401,-0.401,-0.401,0,-0.3634,-0.3645,-0.3669,-0.3697,-0.3717,-0.374,-0.3765,-0.3776,-0.3806,-0.3825,-0.3854,-0.3873,-0.3912,-0.3942,-0.3974,-0.3993,-0.4007,-0.401,-0.4014,-0.4007,-0.3997,-0.4003,-0.399,-0.401,-0.401,-0.401,-0.401,-0.401,-0.3636,-0.3651,-0.3679,-0.3705,-0.3726,-0.3748,-0.3765,-0.3787,-0.3811,-0.3844,-0.3858,-0.3887,-0.3917,-0.3962,-0.3981,-0.4005,-0.4008,-0.4013,-0.4015,-0.4016,-0.4014,-0.3993,-0.4011,-0.4011,-0.4011,-0.4012,-0.4012,0,-0.3644,-0.3663,-0.3687,-0.372,-0.374,-0.375,-0.3778,-0.3795,-0.382,-0.3846,-0.387,-0.3904,-0.3933,-0.3962,-0.3993,-0.4007,-0.4014,-0.4014,-0.4013,-0.4017,-0.401,-0.4004,-0.4008,-0.4008,-0.4008,-0.4008,-0.4008,-0.4008,-0.3651,-0.3677,-0.3691,-0.3728,-0.3748,-0.3776,-0.3791,-0.3812,-0.3832,-0.3869,-0.3892,-0.3911,-0.3938,-0.3971,-0.3999,-0.4007,-0.4017,-0.4015,-0.4025,-0.4018,-0.4018,-0.4018,-0.4012,-0.4017,-0.4017,-0.403,-0.403,-0.4031]},{"header":{"parameterUnit":"m.s-1","parameterCategory":1,"la1":30.2991,"la2":30.254,"lo1":-89.0895,"lo2":-89.0444,"dy":0.0017,"dx":0.0017,"nx":28,"ny":28,"refTime":"2023-03-17T21:00:00:Z","depth":0,"parameterNumber":3,"parameterNumberName":"V-component_of_WINDS"},"data":[0,0,0,0,0,0,0,0,0,0,0,0,0,0,0,0,0,0,0,0,0,0,0,0,0,0,0,0,0,0,0,0,0,0,0,0,0,0,0,0,0,0,0,0,0,0,0,0,0,0,0,0,0,0,0,0,0,0,4.993,4.9931,0,4.9979,4.9979,4.998,4.994,4.9939,4.9937,4.9935,4.9983,4.9986,4.9988,0,0,0,0,0,0,0,0,0,0,0,0,0,4.9801,4.9803,4.993,4.9931,4.9931,4.9979,4.9979,4.998,4.9941,4.9939,4.9937,4.9935,4.9982,4.9985,4.9989,0,0,0,0,0,0,0,0,0,0,0,0,0,4.9854,4.9804,4.993,4.9917,4.9917,4.9979,4.9979,4.998,4.9941,4.9939,4.9936,4.9934,4.9981,4.9985,4.9989,5.0065,0,0,5.0002,5.0004,0,0,0,0,0,0,0,0,4.9851,4.9859,4.9919,4.9918,4.9918,4.9951,4.9951,5.0009,4.9942,4.9932,4.9935,4.9932,4.9974,4.9979,4.9993,5.0067,5.007,5.0002,5.0005,5.0007,5.0008,0,0,0,0,0,0,0,4.9847,4.9856,4.9949,4.992,4.9919,4.9909,4.9913,4.9962,4.9966,4.9932,4.993,4.9936,4.9973,4.9989,4.9994,5.007,5.0002,5.0006,5.0009,5.001,5.021,5.0213,0,0,0,0,0,0,4.9845,4.9854,4.9948,4.9951,4.9878,4.9913,4.9918,4.9943,4.9966,4.9967,4.9938,4.9934,4.9983,4.9989,4.9996,5.0087,5.0007,5.0011,5.0013,5.0207,5.0211,5.0214,0,0,0,0,0,0,4.9843,4.9854,4.9946,4.9902,4.9912,4.9918,4.9946,4.9945,4.9961,4.997,4.997,4.9954,4.9982,4.999,5.0049,5.0088,5.0013,5.0016,5.0204,5.0208,5.0212,5.0271,0,0,0,0,0,0,4.9839,4.9853,4.9883,4.9903,4.9915,4.9999,4.9948,4.9948,4.9969,4.9964,4.9985,4.9986,4.998,5.0043,5.0053,5.0093,5.002,5.0201,5.0206,5.0211,5.0265,5.0276,5.0286,0,0,0,0,0,4.9835,4.9897,4.9885,4.9896,4.9952,5.0001,5.0008,5.0001,4.9972,5.0002,5.0007,4.9985,5.0082,5.0049,5.006,5.0102,5.0198,5.0204,5.021,5.0261,5.0274,5.0286,0,0,0,0,0,0,4.988,4.9899,4.9886,4.9956,4.9978,4.9994,5.0031,5.0015,5.0045,5.0039,5.0028,5.0033,5.0096,5.0104,5.0067,5.0177,5.0135,5.0144,5.017,5.0182,5.0193,5.019,5.0023,0,0,0,0,0,4.9899,4.9938,4.9952,5.0012,5.0024,5.0026,5.0047,5.004,5.0061,5.007,5.008,5.0101,5.0136,5.0159,5.0192,5.0266,5.027,5.03,5.031,5.0319,5.0327,5.0367,5.0381,5.0234,5.0234,5.0234,0,0,4.9937,4.9952,4.9977,5.0022,5.0038,5.0078,5.0034,5.0078,5.0108,5.0076,5.0133,5.0141,5.0164,5.0231,5.0261,5.024,5.0368,5.0327,5.0333,5.0337,5.0375,5.0389,5.0402,5.0238,5.0238,5.0237,0,0,5.0028,5.0043,5.0096,5.0112,5.0137,5.0138,5.0151,5.0171,5.0175,5.0232,5.021,5.0244,5.0305,5.0322,5.0339,5.0437,5.0418,5.0448,5.0502,5.0542,5.0553,5.0564,5.06,5.0613,5.0456,5.0456,5.0456,0,5.0072,5.0133,5.0124,5.0171,5.0192,5.0166,5.0219,5.0235,5.0269,5.0284,5.026,5.0337,5.035,5.0421,5.0445,5.0459,5.0473,5.0446,5.0552,5.0563,5.0572,5.0606,5.062,5.0459,5.0459,5.0458,5.0458,0,5.0186,5.0229,5.0268,5.0303,5.0328,5.0378,5.0376,5.0402,5.0393,5.0396,5.0455,5.047,5.0506,5.0522,5.0513,5.0592,5.0579,5.0554,5.0512,5.059,5.0622,5.0635,5.0464,5.0463,5.0462,5.0461,0,0,5.0308,5.0338,5.0353,5.0369,5.0394,5.0427,5.0475,5.0511,5.0534,5.0558,5.0599,5.0651,5.0628,5.0647,5.064,5.0674,5.0752,5.0645,5.0646,5.0666,5.0842,5.0862,5.0877,5.0739,5.0742,5.0744,5.0841,0,5.0401,5.0486,5.048,5.0561,5.06,5.0576,5.0618,5.0638,5.0643,5.0676,5.068,5.0718,5.0685,5.0697,5.073,5.0736,5.0788,5.0729,5.0778,5.0779,5.0774,5.0894,5.0915,5.1006,5.0853,5.0855,5.0857,0,5.052,5.055,5.0635,5.0656,5.0672,5.071,5.0744,5.0776,5.0798,5.0799,5.0821,5.0807,5.0856,5.0812,5.0879,5.0839,5.0858,5.0864,5.0867,5.0873,5.0824,5.0904,5.1035,5.1049,5.0876,5.0875,5.0873,0,5.0602,5.0663,5.0722,5.0736,5.0762,5.0789,5.0801,5.0821,5.0843,5.0871,5.0886,5.0919,5.0938,5.0964,5.096,5.0928,5.1028,5.0983,5.1031,5.1031,5.1054,5.1053,5.1191,5.1064,5.1064,5.1064,5.1063,0,5.0708,5.0761,5.076,5.0796,5.0855,5.0847,5.0905,5.0914,5.0932,5.0969,5.0949,5.0984,5.0976,5.1011,5.1008,5.1065,5.1073,5.1075,5.1074,5.1078,5.1078,5.1091,5.1086,5.1067,5.1067,5.1066,5.1065,0,5.0809,5.0811,5.0874,5.0893,5.0899,5.0942,5.0957,5.0992,5.0994,5.1042,5.1053,5.1057,5.1097,5.1096,5.1141,5.1139,5.1209,5.1199,5.1202,5.1201,5.1249,5.1245,5.1402,5.1423,5.1281,5.1282,5.1283,0,5.0877,5.0918,5.0942,5.0966,5.098,5.1019,5.1042,5.1035,5.106,5.1089,5.112,5.1158,5.1189,5.1255,5.1261,5.1296,5.1288,5.1341,5.1293,5.1297,5.1291,5.129,5.1294,5.1351,5.1352,5.1354,5.1355,0,5.0998,5.0997,5.1032,5.1067,5.1096,5.1123,5.1148,5.1168,5.1164,5.1193,5.1235,5.1259,5.1306,5.1345,5.1378,5.1389,5.1372,5.1369,5.1382,5.1388,5.1388,5.139,5.1229,5.1366,5.1365,5.1364,5.1363,5.1363,5.1086,5.1122,5.1144,5.1184,5.1202,5.1226,5.126,5.1267,5.1302,5.1341,5.1334,5.1381,5.1402,5.1446,5.146,5.1496,5.1477,5.1496,5.1501,5.1506,5.1512,5.1381,5.1502,5.1501,5.1501,5.1501,5.1501,0,5.1207,5.1221,5.1257,5.1294,5.1325,5.1306,5.1333,5.136,5.1402,5.1423,5.1455,5.1503,5.154,5.155,5.1587,5.1614,5.1607,5.1624,5.1623,5.1626,5.1526,5.1512,5.1629,5.1629,5.1629,5.1629,5.1629,5.1629,5.1274,5.1334,5.1335,5.1404,5.1417,5.1464,5.1481,5.1503,5.152,5.1575,5.1607,5.1613,5.1631,5.1668,5.1702,5.1704,5.1719,5.1739,5.1738,5.1645,5.1633,5.162,5.1607,5.1742,5.1742,5.1835,5.1836,5.1837]}]]